When you browse on this site, cookies collect data to enhance your experience and personalize the content and advertising you see.
Visit our Privacy Policy to learn more. By continuing to use the site, you agree to this use of cookies and data.
  • En España
  • Lista de países
  • Para 7 días
  • Temperatura del agua
  • Mapa Satelital
  • El tiempo en el mapa
  • Informadores
  • user-avatar
    Iniciar sesión

    Tiempo cada hora Valbom

    Hoy, 14 Diciembre, Viernes

    Tiempo Temperatura Precipitaciones Viento Presión Humedad
    00:00 +8°C° 0 mm 2 mps 765 mmHg 90%
    01:00 +8°C° 0 mm 2 mps 765 mmHg 90%
    02:00 +8°C° 0 mm 2 mps 765 mmHg 91%
    03:00 +8°C° 0 mm 2 mps 765 mmHg 91%
    04:00 +8°C° 0 mm 2 mps 765 mmHg 91%
    05:00 +9°C° 0 mm 1 mps 765 mmHg 91%
    06:00 +9°C° 0 mm 1 mps 766 mmHg 90%
    07:00 +9°C° 0 mm 1 mps 766 mmHg 89%
    08:00 +10°C° 0 mm 1 mps 766 mmHg 88%
    09:00 +11°C° 0 mm 1 mps 766 mmHg 85%
    10:00 +10°C° 0 mm 2 mps 767 mmHg 83%
    11:00 +12°C° 0 mm 2 mps 767 mmHg 80%
    12:00 +13°C° 0 mm 2 mps 767 mmHg 80%
    13:00 +13°C° 0 mm 2 mps 766 mmHg 79%
    14:00 +12°C° 0 mm 3 mps 766 mmHg 79%
    15:00 +12°C° 0 mm 3 mps 766 mmHg 81%
    16:00 +12°C° 0 mm 2 mps 766 mmHg 84%
    17:00 +10°C° 0 mm 2 mps 766 mmHg 87%
    18:00 +10°C° 0 mm 3 mps 766 mmHg 87%
    19:00 +10°C° 0 mm 3 mps 767 mmHg 87%
    20:00 +10°C° 0 mm 3 mps 767 mmHg 87%
    21:00 +11°C° 0.3 mm 4 mps 767 mmHg 88%
    22:00 +11°C° 0.3 mm 4 mps 767 mmHg 88%
    23:00 +10°C° 0.3 mm 5 mps 766 mmHg 89%

    Mañana, 15 Diciembre, Sábado

    Tiempo Temperatura Precipitaciones Viento Presión Humedad
    00:00 +10°C° 0.3 mm 5 mps 766 mmHg 89%
    01:00 +10°C° 0.3 mm 5 mps 766 mmHg 90%
    02:00 +10°C° 0.3 mm 5 mps 766 mmHg 90%
    03:00 +10°C° 0 mm 5 mps 766 mmHg 90%
    04:00 +12°C° 0 mm 5 mps 765 mmHg 91%
    05:00 +12°C° 0 mm 5 mps 765 mmHg 91%
    06:00 +12°C° 0.1 mm 5 mps 765 mmHg 91%
    07:00 +11°C° 0.1 mm 6 mps 765 mmHg 90%
    08:00 +11°C° 0.1 mm 6 mps 765 mmHg 90%
    09:00 +13°C° 0.4 mm 6 mps 765 mmHg 90%
    10:00 +13°C° 0.4 mm 6 mps 765 mmHg 89%
    11:00 +12°C° 0.4 mm 7 mps 764 mmHg 89%
    12:00 +12°C° 0.2 mm 7 mps 764 mmHg 90%
    13:00 +14°C° 0.2 mm 7 mps 763 mmHg 90%
    14:00 +14°C° 0.2 mm 7 mps 763 mmHg 91%
    15:00 +14°C° 2.8 mm 7 mps 763 mmHg 92%
    16:00 +14°C° 2.8 mm 7 mps 763 mmHg 93%
    17:00 +14°C° 2.8 mm 7 mps 763 mmHg 94%
    18:00 +14°C° 3.6 mm 5 mps 763 mmHg 95%
    19:00 +14°C° 3.6 mm 4 mps 763 mmHg 96%
    20:00 +14°C° 3.6 mm 3 mps 763 mmHg 96%
    21:00 +15°C° 1.8 mm 2 mps 763 mmHg 96%
    22:00 +14°C° 1.8 mm 2 mps 762 mmHg 95%
    23:00 +14°C° 1.8 mm 1 mps 762 mmHg 94%

    Pasado mañana, 16 Diciembre, Domingo

    Tiempo Temperatura Precipitaciones Viento Presión Humedad
    00:00 +14°C° 0.9 mm 1 mps 762 mmHg 94%
    01:00 +13°C° 0.9 mm 1 mps 762 mmHg 93%
    02:00 +13°C° 0.9 mm 1 mps 762 mmHg 93%
    03:00 +13°C° 0.3 mm 2 mps 762 mmHg 93%
    04:00 +12°C° 0.3 mm 2 mps 762 mmHg 93%
    05:00 +12°C° 0.3 mm 2 mps 761 mmHg 93%
    06:00 +11°C° 0.2 mm 3 mps 762 mmHg 92%
    07:00 +11°C° 0.2 mm 3 mps 762 mmHg 92%
    08:00 +12°C° 0.2 mm 4 mps 763 mmHg 91%
    09:00 +12°C° 0.6 mm 4 mps 763 mmHg 89%
    10:00 +12°C° 0.6 mm 5 mps 763 mmHg 88%
    11:00 +11°C° 0.6 mm 6 mps 764 mmHg 86%
    12:00 +12°C° 0.2 mm 5 mps 764 mmHg 82%
    13:00 +13°C° 0.2 mm 5 mps 764 mmHg 78%
    14:00 +13°C° 0.2 mm 5 mps 764 mmHg 75%
    15:00 +12°C° 0 mm 4 mps 765 mmHg 77%
    16:00 +11°C° 0 mm 3 mps 765 mmHg 80%
    17:00 +10°C° 0 mm 2 mps 766 mmHg 83%
    18:00 +9°C° 0 mm 2 mps 766 mmHg 84%
    19:00 +9°C° 0 mm 2 mps 767 mmHg 84%
    20:00 +10°C° 0 mm 1 mps 767 mmHg 85%
    21:00 +10°C° 0 mm 1 mps 767 mmHg 86%
    22:00 +9°C° 0 mm 1 mps 768 mmHg 87%
    23:00 +8°C° 0 mm 2 mps 768 mmHg 88%

    17 Diciembre, Lunes

    Tiempo Temperatura Precipitaciones Viento Presión Humedad
    00:00 +8°C° 0 mm 2 mps 768 mmHg 88%
    01:00 +8°C° 0 mm 2 mps 768 mmHg 88%
    02:00 +8°C° 0 mm 2 mps 768 mmHg 88%
    03:00 +8°C° 0 mm 3 mps 768 mmHg 88%
    04:00 +8°C° 0 mm 3 mps 767 mmHg 88%
    05:00 +8°C° 0 mm 3 mps 767 mmHg 87%
    06:00 +8°C° 0 mm 3 mps 768 mmHg 86%
    07:00 +8°C° 0 mm 3 mps 768 mmHg 85%
    08:00 +8°C° 0 mm 3 mps 768 mmHg 84%
    09:00 +10°C° 0 mm 4 mps 768 mmHg 80%
    10:00 +11°C° 0 mm 4 mps 768 mmHg 75%
    11:00 +13°C° 0 mm 4 mps 768 mmHg 71%
    12:00 +13°C° 0 mm 4 mps 767 mmHg 70%
    13:00 +13°C° 0 mm 4 mps 766 mmHg 69%
    14:00 +13°C° 0 mm 4 mps 766 mmHg 68%
    15:00 +12°C° 0 mm 4 mps 766 mmHg 72%
    16:00 +11°C° 0 mm 4 mps 766 mmHg 76%
    17:00 +10°C° 0 mm 4 mps 766 mmHg 80%
    18:00 +10°C° 0 mm 4 mps 766 mmHg 81%
    19:00 +8°C° 0 mm 4 mps 766 mmHg 82%
    20:00 +8°C° 0 mm 5 mps 766 mmHg 82%
    21:00 +8°C° 0 mm 5 mps 765 mmHg 80%
    22:00 +8°C° 0 mm 6 mps 765 mmHg 79%
    23:00 +8°C° 0 mm 6 mps 764 mmHg 77%

    18 Diciembre, Martes

    Tiempo Temperatura Precipitaciones Viento Presión Humedad
    00:00 +8°C° 0 mm 7 mps 764 mmHg 76%
    01:00 +8°C° 0 mm 7 mps 763 mmHg 75%
    02:00 +8°C° 0 mm 7 mps 762 mmHg 75%
    03:00 +7°C° 0 mm 8 mps 762 mmHg 75%
    04:00 +7°C° 0 mm 8 mps 761 mmHg 75%
    05:00 +8°C° 0 mm 9 mps 760 mmHg 75%
    06:00 +8°C° 0.9 mm 9 mps 760 mmHg 78%
    07:00 +8°C° 0.9 mm 9 mps 760 mmHg 81%
    08:00 +9°C° 0.9 mm 10 mps 760 mmHg 85%
    09:00 +10°C° 4 mm 8 mps 760 mmHg 88%
    10:00 +10°C° 4 mm 6 mps 760 mmHg 91%
    11:00 +11°C° 4 mm 4 mps 760 mmHg 94%
    12:00 +12°C° 3.3 mm 4 mps 760 mmHg 95%
    13:00 +12°C° 3.3 mm 3 mps 760 mmHg 96%
    14:00 +13°C° 3.3 mm 2 mps 759 mmHg 97%
    15:00 +13°C° 1.3 mm 2 mps 760 mmHg 96%
    16:00 +12°C° 1.3 mm 2 mps 760 mmHg 96%
    17:00 +12°C° 1.3 mm 1 mps 761 mmHg 95%
    18:00 +12°C° 0.1 mm 1 mps 761 mmHg 95%
    19:00 +12°C° 0.1 mm 1 mps 762 mmHg 94%
    20:00 +12°C° 0.1 mm 1 mps 762 mmHg 94%
    21:00 +12°C° 0 mm 1 mps 762 mmHg 93%
    22:00 +10°C° 0 mm 2 mps 762 mmHg 92%
    23:00 +10°C° 0 mm 2 mps 763 mmHg 91%

    19 Diciembre, Miércoles

    Tiempo Temperatura Precipitaciones Viento Presión Humedad
    00:00 +10°C° 0 mm 2 mps 763 mmHg 91%
    01:00 +9°C° 0 mm 2 mps 763 mmHg 91%
    02:00 +9°C° 0 mm 2 mps 763 mmHg 90%
    03:00 +9°C° 0.1 mm 2 mps 763 mmHg 91%
    04:00 +9°C° 0.1 mm 2 mps 763 mmHg 91%
    05:00 +9°C° 0.1 mm 2 mps 764 mmHg 91%
    06:00 +9°C° 0.2 mm 2 mps 764 mmHg 91%
    07:00 +9°C° 0.2 mm 2 mps 765 mmHg 92%
    08:00 +9°C° 0.2 mm 2 mps 765 mmHg 92%
    09:00 +10°C° 0.1 mm 2 mps 765 mmHg 87%
    10:00 +12°C° 0.1 mm 2 mps 765 mmHg 82%
    11:00 +13°C° 0.1 mm 2 mps 766 mmHg 77%
    12:00 +14°C° 0.1 mm 2 mps 765 mmHg 76%
    13:00 +13°C° 0.1 mm 3 mps 765 mmHg 74%
    14:00 +13°C° 0.1 mm 3 mps 765 mmHg 72%
    15:00 +13°C° 0 mm 2 mps 765 mmHg 76%
    16:00 +12°C° 0 mm 2 mps 765 mmHg 81%
    17:00 +11°C° 0 mm 1 mps 765 mmHg 85%
    18:00 +10°C° 0 mm 2 mps 766 mmHg 86%
    19:00 +9°C° 0 mm 2 mps 766 mmHg 86%
    20:00 +9°C° 0 mm 2 mps 766 mmHg 87%
    21:00 +9°C° 0.1 mm 2 mps 766 mmHg 88%
    22:00 +9°C° 0.1 mm 2 mps 766 mmHg 88%
    23:00 +9°C° 0.1 mm 2 mps 766 mmHg 89%
    Mostrar más